Theta_e
317 319 318 319 319 318 315 314 314 316 317 318 319 320 320 320 319 316 316 318 313 314 320 317 317 319 318 317 313 307 313 317 311 307 304 302 301 300 300 299 298 297 297 296 295 294 294 294 294 295 295 297 300 301 302 304 304 305 306 307 307 308 310 311 312 314 316 317 317 317 316 315 315 316 317 316 315 316 315 316 317 317 317 317 318 319
314 317 320 319 317 316 315 313 312 313 313 314 316 317 318 318 317 315 315 315 313 314 320 317 317 320 318 316 311 308 314 312 306 305 303 301 301 300 299 299 298 298 296 295 294 294 293 293 293 293 294 295 296 297 298 300 302 303 304 305 305 306 307 308 309 310 311 311 312 312 311 311 312 312 312 311 311 311 311 312 312 312 312 312 313 313
315 318 318 316 314 313 314 314 312 313 314 314 316 316 319 319 318 319 317 314 313 316 322 320 317 318 316 314 309 306 307 304 302 303 302 301 300 299 299 298 297 297 296 295 294 293 293 292 293 293 293 293 293 294 295 297 300 302 303 303 304 305 305 306 306 307 307 307 308 309 309 309 309 308 308 308 308 308 308 308 307 307 307 308 308 308
320 321 318 313 313 313 315 316 316 315 316 318 319 318 322 320 319 324 321 316 315 314 319 319 316 318 316 312 308 305 304 302 301 301 300 300 299 299 298 297 297 296 296 295 294 293 292 292 292 292 292 292 292 293 293 295 297 298 300 301 302 303 304 304 305 305 305 306 306 306 307 307 307 306 306 306 306 306 306 305 304 304 304 304 305 305
321 322 319 315 315 315 315 317 318 317 319 323 322 319 321 320 319 323 321 318 318 316 316 316 320 326 324 318 311 306 305 303 302 301 301 300 299 299 297 296 296 295 295 295 294 292 291 291 291 291 292 292 292 292 292 292 294 295 297 299 301 302 302 303 304 305 305 305 306 306 306 305 305 304 304 304 303 303 303 303 303 302 303 303 303 303
319 318 318 319 318 316 316 318 321 321 322 326 325 320 320 321 321 321 318 318 321 323 318 314 324 335 334 328 316 308 308 305 303 302 301 300 299 298 298 297 296 296 295 293 293 292 291 291 291 291 291 291 291 291 291 292 293 294 296 297 299 300 300 302 302 303 304 304 304 304 303 302 301 299 298 298 299 300 301 301 301 301 301 302 302 302
319 316 316 321 321 319 318 320 323 322 322 324 324 321 319 317 318 320 319 319 325 326 316 312 320 329 332 330 319 312 311 307 304 304 301 300 299 298 298 297 296 296 295 294 292 291 290 291 290 290 291 291 291 291 291 292 292 293 295 296 297 298 298 299 300 301 302 302 302 301 300 299 298 297 296 297 298 298 299 300 301 300 300 300 300 301
319 317 316 318 321 321 320 322 323 321 325 326 322 321 322 320 320 322 320 321 323 321 320 319 317 319 324 324 317 314 313 309 306 305 302 301 299 299 298 297 297 296 295 294 293 291 290 290 290 290 290 290 290 291 291 292 292 293 294 295 296 296 296 297 297 298 299 299 298 298 298 297 296 296 295 296 297 297 298 298 298 299 299 299 300 300
316 317 320 319 319 321 321 325 323 320 323 325 319 319 322 322 324 325 321 322 319 314 323 327 317 316 323 325 318 312 313 313 309 306 303 301 299 299 298 297 297 296 295 293 293 291 290 290 290 290 290 290 290 291 291 291 292 292 293 295 295 295 295 295 296 297 297 297 296 296 296 295 294 294 294 295 295 295 296 295 295 295 296 296 297 297
314 313 318 320 320 322 322 322 320 319 319 319 315 317 321 321 322 324 323 323 318 315 323 326 318 317 325 330 323 313 313 317 313 307 303 301 300 299 299 298 297 296 295 293 291 290 290 290 290 290 290 290 290 290 291 291 292 292 293 294 295 294 294 294 295 295 295 295 296 295 295 294 293 293 294 294 294 293 293 293 292 292 292 292 293 293
315 311 312 317 319 320 321 315 312 316 315 313 315 319 323 323 321 322 323 320 317 321 325 322 317 317 322 328 324 315 313 312 310 307 303 301 300 299 299 298 297 296 296 294 291 289 290 290 290 290 290 290 290 291 291 291 292 292 292 293 293 292 292 293 293 293 293 293 293 293 293 292 292 292 292 291 290 290 290 289 289 289 289 289 289 289
317 314 314 317 315 316 320 316 312 314 314 315 320 323 324 326 323 323 325 321 321 327 324 317 314 315 320 325 319 313 306 303 305 306 303 301 301 300 299 298 297 296 296 295 293 290 289 289 289 289 289 289 290 291 291 291 291 291 291 292 292 291 291 291 291 291 291 291 291 291 290 290 289 289 289 288 287 287 287 287 287 287 287 287 287 286
319 319 317 315 313 315 322 321 315 316 318 319 322 324 325 325 322 324 325 322 323 324 317 314 314 315 320 321 315 310 304 300 301 303 302 301 300 300 300 298 297 296 296 295 294 291 289 289 289 289 289 289 289 290 290 290 290 290 290 291 290 289 289 289 289 289 289 289 289 288 288 288 288 287 287 286 286 286 286 286 286 286 286 286 286 286
321 322 317 313 314 316 320 321 318 320 320 318 320 325 326 324 323 326 324 318 319 319 312 311 314 317 321 317 310 306 302 298 298 300 301 300 299 300 299 298 297 296 295 295 294 291 288 289 289 289 289 288 288 289 289 289 289 289 289 289 289 288 288 288 288 288 288 287 287 287 287 286 286 286 286 286 285 285 285 285 286 286 286 286 286 286
323 325 320 317 317 316 315 317 323 326 319 315 319 321 322 326 328 326 324 321 321 320 314 310 314 323 324 313 304 302 299 297 298 299 300 299 298 299 298 298 298 296 295 294 293 290 288 289 289 289 289 288 288 288 288 288 289 289 288 288 288 287 287 287 287 287 287 286 286 286 286 286 286 286 285 286 286 286 286 286 286 286 286 287 287 287
319 324 324 318 313 314 315 316 320 323 318 314 314 317 319 323 324 320 319 319 318 320 318 315 318 322 317 307 301 301 299 298 298 298 299 300 299 298 299 298 298 297 295 294 294 291 289 289 290 289 289 288 288 288 288 288 288 288 288 287 287 287 286 287 286 286 286 286 286 285 285 285 285 286 286 286 286 286 287 287 287 287 287 287 287 287
318 323 321 314 312 313 313 315 316 319 319 315 313 319 319 316 318 320 318 314 313 318 319 317 320 317 311 308 303 301 301 300 298 298 299 300 299 299 299 299 298 297 296 295 294 291 289 290 290 289 289 288 288 288 287 287 287 287 288 287 287 287 287 287 286 286 286 286 286 285 285 286 286 286 286 286 287 287 287 287 287 287 287 287 287 287
322 324 319 314 315 313 309 312 316 314 316 317 318 321 316 313 319 321 321 320 318 319 319 317 319 318 316 315 306 301 303 301 299 300 300 299 299 300 300 299 298 298 296 295 293 289 289 290 290 289 289 288 288 287 287 287 287 287 287 287 287 287 287 286 286 286 286 286 286 285 286 286 286 286 287 287 287 287 287 287 287 287 287 286 287 287
320 322 318 313 315 315 311 315 318 313 311 316 319 316 314 318 322 319 319 323 321 320 322 322 318 316 317 316 312 309 306 303 302 301 300 300 300 300 301 300 299 298 296 295 294 290 289 290 290 290 289 288 287 287 287 287 287 287 287 287 287 287 286 286 286 286 286 286 286 286 286 286 287 287 287 287 287 287 288 287 287 287 287 287 287 287
319 321 320 313 312 315 314 316 321 318 311 312 313 312 314 319 321 320 318 320 322 320 322 323 319 319 319 317 319 318 307 302 303 301 301 301 300 301 301 300 299 298 296 296 295 292 289 290 291 290 289 289 288 287 287 287 287 287 287 287 287 286 286 286 286 286 286 286 286 286 286 287 287 287 287 287 287 287 287 287 287 287 287 287 287 287
316 317 320 316 312 314 317 318 321 320 316 315 316 315 316 315 316 319 316 317 321 321 324 323 318 322 323 315 318 317 305 301 302 301 301 301 300 300 301 300 299 297 296 295 295 292 289 290 291 290 290 290 289 289 288 288 287 287 287 287 286 286 286 286 286 286 286 286 286 287 287 287 287 287 287 287 287 286 286 286 286 286 286 286 286 286
317 317 322 320 315 318 322 316 313 316 317 318 318 318 318 316 316 319 317 316 318 319 324 323 317 320 319 310 310 310 303 301 302 301 301 301 301 301 300 300 299 297 296 295 294 291 290 290 291 291 291 291 291 290 289 288 288 287 287 287 286 287 287 287 287 287 287 287 287 287 287 287 287 286 286 286 286 286 286 285 285 285 286 286 286 286
318 321 323 321 318 319 317 311 307 311 314 315 316 316 318 318 319 320 318 317 317 316 317 318 317 318 312 305 306 305 301 302 301 301 302 302 301 301 300 300 299 297 296 295 293 291 290 291 291 291 291 291 291 291 290 289 288 288 287 287 287 287 287 287 287 287 287 287 287 287 286 286 286 286 286 286 286 286 286 285 286 286 286 286 286 286
317 320 321 320 320 317 313 311 309 309 311 313 315 314 316 318 318 318 317 317 320 319 317 317 318 316 310 306 306 303 301 302 301 300 303 303 302 301 301 301 300 299 297 295 293 291 291 292 291 291 291 291 291 291 290 289 288 288 288 287 288 287 287 287 287 287 287 286 286 286 286 286 286 286 286 285 285 285 285 284 284 284 285 285 285 285
317 321 321 319 321 319 315 315 314 312 312 315 316 314 314 317 316 314 313 314 317 319 318 316 316 315 312 307 305 304 303 303 302 301 302 304 305 304 303 302 301 299 297 296 295 292 290 290 291 291 291 291 291 291 290 289 288 288 288 288 288 288 288 288 287 287 287 286 286 286 285 285 285 285 285 284 284 283 283 283 283 282 282 282 282 282
316 320 320 318 319 319 318 318 316 316 315 313 314 313 312 313 314 313 314 315 316 317 317 316 315 314 312 307 306 306 304 304 305 303 301 303 306 305 304 302 301 300 298 296 296 294 291 289 290 291 291 291 291 290 290 289 289 288 289 289 289 288 288 288 287 287 287 286 286 285 285 285 284 284 284 283 283 282 282 282 282 282 282 282 281 280
318 319 318 318 319 317 319 319 314 314 317 315 313 313 312 312 311 312 315 315 314 315 315 315 314 313 313 310 308 308 306 306 306 305 303 304 305 304 303 302 300 298 296 295 295 294 292 290 289 291 291 291 291 290 290 289 289 289 289 289 288 288 288 288 288 287 287 286 286 285 284 284 284 283 283 283 282 282 282 282 282 282 282 282 281 280
318 317 315 317 317 315 317 318 312 312 316 316 315 314 313 310 309 310 312 313 314 314 313 312 312 312 313 312 309 308 308 307 306 306 306 306 305 303 302 302 299 295 294 294 294 295 295 292 289 290 291 291 291 290 290 289 289 289 288 288 288 288 288 288 287 287 287 286 285 285 284 284 283 283 283 282 282 282 282 282 282 281 281 280 279 278
318 317 315 315 314 312 312 313 311 310 312 313 314 314 312 309 309 309 309 310 312 312 311 310 310 310 310 309 309 309 308 306 305 306 305 304 302 301 300 301 299 295 294 295 294 295 297 294 289 288 290 290 290 290 289 289 289 288 288 288 288 288 288 287 287 287 287 286 285 285 284 284 283 283 282 282 282 281 281 281 280 280 279 279 278 277
315 317 314 312 312 310 308 308 307 307 309 310 311 311 310 307 306 306 306 307 307 308 308 308 307 307 306 305 305 306 306 305 305 304 301 299 301 302 301 300 298 295 294 295 295 295 294 290 287 289 290 290 290 290 289 288 288 288 288 288 288 287 287 287 287 286 286 285 284 284 283 282 282 282 282 281 281 280 280 280 279 279 279 278 278 277
311 314 311 310 312 309 304 304 305 304 306 308 308 308 306 304 304 304 304 304 304 305 305 304 304 304 303 302 303 303 304 304 304 302 300 299 301 302 300 298 296 295 294 294 294 294 292 286 286 289 289 289 290 289 289 289 288 288 288 287 287 287 286 286 286 286 285 285 284 283 282 282 282 281 281 280 280 279 279 279 279 278 278 278 278 277
309 310 307 308 313 310 302 301 303 301 302 303 304 303 301 302 304 302 302 303 303 304 303 302 303 302 301 301 301 302 302 301 300 300 300 299 298 298 299 298 295 294 294 294 293 295 293 288 285 287 288 289 289 289 288 289 288 287 287 287 286 286 285 285 285 285 284 284 283 282 282 281 280 280 279 279 278 278 278 277 277 277 277 277 277 276
308 309 308 308 313 308 300 299 302 302 303 304 303 302 301 301 301 300 300 301 301 302 302 302 302 301 300 300 300 300 300 299 298 298 300 299 296 295 297 297 295 294 294 294 294 293 292 288 285 287 288 289 289 289 288 288 287 287 286 285 285 284 284 284 284 283 283 282 282 281 280 279 278 278 277 277 277 277 276 276 276 276 276 275 275 274
305 308 308 307 309 305 298 298 302 304 307 305 301 302 302 300 300 300 299 299 299 300 301 300 300 299 299 299 299 299 299 298 297 297 297 298 297 296 295 294 294 294 293 292 292 289 287 286 286 287 288 288 288 288 287 286 286 285 284 283 283 283 283 283 282 282 281 280 280 279 278 278 277 276 276 276 276 275 275 275 275 274 274 273 272 272
304 305 305 304 304 301 296 299 304 306 305 300 297 299 300 298 298 298 297 297 297 298 298 298 299 299 299 299 299 298 296 295 294 294 293 294 295 296 295 294 293 294 293 293 291 287 284 285 286 286 286 287 287 286 285 285 284 284 283 282 282 282 282 282 281 280 279 279 278 278 277 276 276 276 275 275 275 274 274 274 273 273 272 271 270 269
304 304 304 302 301 299 298 302 306 305 301 297 297 297 295 295 296 295 295 296 295 295 296 297 297 297 298 298 296 295 294 292 291 292 292 292 292 293 293 294 294 293 292 290 288 286 285 286 287 287 287 286 285 284 284 284 283 283 282 281 281 282 281 280 279 278 278 277 277 277 276 275 275 275 274 274 273 273 273 272 272 271 270 269 268 268
303 303 304 304 302 302 301 301 303 303 301 301 300 296 293 295 296 296 296 297 296 294 295 296 297 297 297 295 294 293 292 290 290 292 293 293 292 291 290 290 291 290 288 287 287 287 288 288 288 287 287 285 284 284 283 283 282 282 281 281 280 280 279 278 277 277 277 277 276 275 275 274 274 273 273 273 272 272 272 271 271 270 269 268 267 266
300 302 305 306 304 302 301 302 302 303 303 302 299 295 294 296 298 297 296 297 298 297 295 296 298 297 295 294 292 291 290 291 293 294 293 293 293 291 288 287 286 287 287 287 287 287 287 287 287 286 286 284 283 282 282 282 281 280 280 279 279 278 277 277 276 276 276 275 275 274 273 273 272 272 272 272 271 271 270 270 269 268 267 266 265 265
299 300 302 304 303 301 301 303 303 302 303 302 299 295 293 293 297 297 296 298 301 298 295 296 297 296 295 293 291 290 291 294 295 294 295 295 292 290 290 287 285 286 288 288 287 287 287 286 286 285 284 283 282 281 281 281 280 279 279 278 278 277 276 276 275 275 275 274 273 272 272 271 271 271 271 271 270 270 269 269 268 267 266 265 264 263
298 299 300 301 302 301 301 301 301 300 300 299 297 294 291 292 296 297 297 299 301 296 292 294 297 298 296 292 290 291 293 295 295 296 297 295 289 286 287 288 286 286 287 287 287 287 287 286 285 284 283 282 282 281 280 280 279 278 278 277 276 275 275 274 274 273 273 272 271 271 271 270 270 270 270 270 269 268 268 267 267 265 264 264 263 263
296 298 299 299 300 300 300 299 298 298 299 297 294 294 293 294 296 297 297 300 300 294 290 293 298 298 294 290 290 292 293 293 294 295 294 292 289 287 286 286 287 287 287 287 286 286 285 285 284 283 282 281 281 280 279 279 278 277 276 275 274 273 273 273 272 272 271 271 270 270 270 270 270 270 269 269 268 267 267 266 265 264 263 263 262 262
295 296 296 298 299 298 298 298 297 298 298 296 294 293 293 294 296 298 298 297 298 297 292 292 297 296 291 290 290 291 292 292 291 291 291 292 292 290 286 284 285 285 285 285 285 285 284 283 281 281 281 280 279 279 278 277 276 275 274 274 273 272 272 272 271 270 270 270 270 270 270 269 269 269 268 268 267 265 266 265 264 263 263 262 262 261
295 296 295 296 298 297 296 296 296 296 295 293 293 292 293 296 299 301 298 293 294 298 295 293 293 292 290 291 290 289 290 291 290 289 290 290 290 288 285 283 283 284 284 283 283 283 282 281 280 280 279 278 277 277 276 276 275 274 273 273 272 271 271 270 270 269 269 269 270 269 269 269 269 268 268 267 266 264 265 265 263 262 262 262 261 261
296 296 295 296 297 296 296 296 296 296 294 292 294 295 295 296 299 301 299 295 294 295 295 294 294 290 289 291 291 289 289 289 289 289 289 288 288 287 284 282 282 283 283 283 283 283 282 281 279 278 277 277 276 275 275 275 274 273 273 272 271 271 270 269 269 269 269 269 269 269 269 268 268 268 267 266 265 264 264 264 263 262 262 262 261 260
296 296 296 298 297 295 295 296 296 295 294 292 295 296 295 294 296 297 297 296 296 294 291 294 297 293 289 290 290 290 289 289 288 289 288 288 288 287 284 283 282 283 283 282 282 282 280 280 279 277 275 275 274 274 274 274 273 273 272 271 270 270 269 269 268 269 269 269 269 268 268 268 268 267 266 265 264 264 263 263 262 261 262 261 261 260
295 292 293 296 296 293 293 293 293 293 293 292 294 295 294 294 295 294 293 294 297 296 292 293 297 295 291 289 289 289 289 289 288 288 288 288 288 285 283 282 282 282 282 281 280 279 278 278 277 276 274 273 273 273 273 273 273 272 271 270 270 269 268 268 268 268 268 268 268 268 267 267 267 267 266 265 264 263 263 262 261 261 261 261 261 260
294 291 290 293 294 294 294 292 291 292 293 292 292 293 293 293 293 292 292 292 294 295 294 293 294 294 291 290 289 289 289 288 288 289 288 288 288 286 283 282 282 282 281 280 279 278 277 276 275 274 274 273 273 273 273 272 271 271 270 269 268 268 268 268 267 267 268 268 267 267 266 266 266 265 265 265 264 263 264 263 261 260 261 261 261 261
294 291 291 293 292 293 295 293 290 290 291 291 291 292 293 293 291 290 291 291 292 292 292 290 290 291 291 290 289 289 289 288 288 288 288 288 288 286 282 281 282 281 280 279 277 276 276 275 275 274 273 273 273 273 272 271 270 270 269 268 268 267 267 267 266 266 267 267 267 266 266 265 264 264 263 263 263 263 263 263 261 261 262 262 262 261
293 292 293 293 292 291 292 292 290 290 290 291 291 290 291 291 291 291 290 290 290 291 290 288 287 287 288 289 289 288 289 289 288 288 288 288 287 285 283 282 282 280 278 277 276 275 275 275 275 274 274 273 273 272 271 271 270 269 268 268 267 267 267 266 265 265 266 266 266 265 265 264 264 263 262 262 262 263 264 264 262 261 262 264 264 262
292 292 292 292 292 293 292 292 292 292 292 292 291 290 290 290 290 290 290 289 289 290 290 290 288 286 285 285 286 287 289 289 288 287 287 287 286 284 283 282 280 278 276 275 275 274 275 275 275 274 273 272 271 271 270 270 269 268 267 267 266 266 265 265 264 264 265 265 265 265 264 263 263 263 262 261 261 261 263 266 265 263 262 263 265 264
291 292 292 291 292 293 293 292 292 292 292 292 292 291 290 289 289 290 290 290 290 289 289 290 290 289 287 285 283 284 288 288 286 285 287 286 283 283 283 282 279 277 275 274 274 273 273 273 273 273 272 271 270 269 269 268 268 267 266 266 266 265 265 264 263 263 264 264 264 263 262 261 262 262 261 261 260 259 260 263 267 267 265 263 263 265
Wind_Speed
3 3 2 5 7 8 10 11 10 5 4 4 2 2 4 5 6 5 5 5 1 0 5 4 4 7 9 9 7 8 7 9 8 6 7 6 6 6 6 6 6 7 7 11 17 20 22 23 24 25 27 28 29 30 30 30 31 30 29 29 30 28 25 24 23 21 20 19 20 21 22 23 23 22 22 23 24 23 23 22 21 20 19 17 14 11
3 4 7 10 10 8 7 8 7 2 2 2 2 3 4 5 6 7 5 5 1 2 4 2 3 8 9 6 6 6 7 8 7 6 7 6 6 5 6 7 6 5 6 10 15 19 22 23 24 26 28 29 30 30 31 31 31 30 30 31 30 28 26 26 25 24 24 22 21 21 22 22 22 22 23 24 23 22 22 22 22 22 22 21 21 19
1 4 12 12 6 2 2 4 5 4 3 2 2 1 4 4 4 7 5 4 2 2 3 2 2 9 8 3 6 6 7 6 6 7 6 6 7 6 6 6 6 6 7 8 11 16 20 22 24 26 28 29 29 30 32 32 31 31 31 31 30 28 27 26 24 24 24 23 22 21 21 21 22 24 24 23 22 21 21 21 21 20 20 20 20 19
3 7 12 8 5 4 2 3 6 3 2 3 3 2 4 3 1 4 4 4 2 1 2 2 2 7 4 4 6 6 5 6 7 8 7 6 7 6 6 5 6 7 7 7 8 12 17 21 24 26 27 28 30 33 33 32 32 32 31 31 30 29 29 27 26 24 23 22 21 21 21 20 21 21 20 20 21 21 21 21 21 21 20 19 18 18
7 8 4 3 6 6 5 3 7 4 2 3 5 5 5 5 5 6 4 4 3 2 2 1 3 5 3 1 2 3 4 6 6 7 8 7 6 6 6 6 6 6 6 6 6 9 14 19 22 25 25 28 31 32 31 31 32 32 32 31 30 29 29 28 26 24 22 21 20 20 20 21 21 22 23 23 25 24 23 23 22 22 20 19 19 18
9 6 3 5 3 5 5 4 5 7 3 4 5 9 10 8 7 6 3 4 4 3 3 4 3 4 5 4 2 4 4 5 5 6 7 6 6 6 6 6 6 5 5 5 6 8 12 16 19 23 26 27 29 28 28 29 30 32 32 32 32 31 30 28 26 25 23 24 24 25 26 26 27 28 28 27 27 26 24 23 22 21 20 20 20 19
5 3 3 4 4 5 4 4 5 7 5 2 4 8 9 6 5 4 2 1 0 2 3 3 1 5 5 6 3 4 5 5 4 6 6 5 5 5 5 5 4 5 5 5 6 9 12 15 18 22 24 25 26 25 27 29 31 33 33 34 34 33 32 30 28 26 26 27 27 27 28 28 28 27 26 24 24 24 22 20 20 20 20 20 20 20
3 1 1 4 4 4 5 4 6 7 6 3 4 5 6 6 6 6 5 3 2 2 4 3 1 3 4 5 4 5 7 5 4 4 4 3 4 4 4 4 4 4 4 4 5 7 11 15 16 18 21 23 23 24 27 30 31 32 33 34 34 34 33 32 31 30 30 30 29 29 29 29 28 27 25 23 22 22 20 20 21 20 20 20 19 19
2 1 2 5 4 4 6 4 7 9 4 6 3 6 6 6 6 5 5 2 1 1 4 4 1 1 5 5 3 4 4 1 1 2 1 2 2 3 3 3 3 3 3 4 4 6 10 13 15 17 19 22 23 25 27 28 29 31 32 33 33 34 33 32 31 31 31 31 31 31 31 31 29 28 27 26 26 26 25 26 26 25 24 23 22 20
0 2 5 7 4 5 4 2 4 8 4 4 5 7 5 6 5 4 5 3 2 1 4 6 4 2 5 5 3 2 2 3 3 4 3 3 2 2 2 1 2 3 3 4 5 7 10 12 14 16 19 22 23 25 26 27 28 29 30 30 32 32 32 31 30 30 31 30 30 31 31 31 30 29 29 29 30 30 30 30 31 31 30 30 29 28
2 2 2 4 3 5 4 3 1 3 3 4 6 5 5 5 4 3 2 4 2 3 6 6 6 5 3 5 3 3 1 2 3 4 4 3 2 1 1 1 1 2 3 3 4 8 11 12 14 17 20 21 22 23 25 26 26 27 28 28 30 30 29 29 29 29 30 29 30 30 30 31 30 29 29 31 32 32 31 32 32 31 32 32 32 32
5 3 2 2 2 4 5 4 3 3 4 5 4 4 3 3 3 4 4 3 1 5 5 4 4 5 4 4 3 2 2 2 3 4 7 7 5 4 3 3 1 2 2 3 4 6 9 11 13 17 19 19 21 23 23 24 24 25 25 26 28 28 27 27 27 27 28 29 29 29 29 30 30 29 30 31 32 31 31 32 31 31 31 31 32 32
3 4 3 3 1 4 5 4 3 5 5 5 4 4 3 3 3 3 3 0 3 6 3 2 2 4 5 5 2 3 4 4 5 5 9 10 8 6 5 4 2 1 2 3 3 4 6 8 10 13 15 18 20 21 21 22 22 23 23 24 26 26 25 25 25 26 27 28 28 27 28 28 28 28 29 29 30 29 30 30 30 31 31 31 32 32
3 5 1 1 2 3 7 4 1 1 1 4 5 4 3 2 0 3 3 2 4 4 2 2 1 1 5 3 2 3 4 4 6 3 8 9 8 7 6 4 3 1 1 2 2 2 4 6 8 11 13 16 18 19 19 20 20 21 22 22 24 24 23 23 24 25 25 26 26 25 26 26 26 26 27 27 27 27 27 28 29 29 29 30 30 30
2 4 2 5 2 3 7 6 5 5 3 3 4 5 4 4 4 4 4 3 4 3 2 2 1 2 3 1 2 3 2 3 3 2 7 7 6 5 4 3 3 2 1 1 1 2 3 6 8 10 13 15 16 17 18 19 19 20 21 21 22 22 22 22 22 23 23 24 23 23 24 24 24 25 25 25 25 25 25 26 26 26 26 26 26 25
5 5 6 3 1 4 6 3 4 6 2 2 2 4 2 4 5 2 3 4 3 2 3 2 2 4 3 2 1 1 3 3 3 4 6 5 5 4 4 4 4 4 3 3 3 3 3 6 8 10 12 14 15 16 17 17 17 18 19 19 20 20 20 20 20 21 21 21 21 22 22 22 22 22 22 23 23 23 23 23 23 23 23 23 23 24
3 4 5 1 0 3 4 3 3 3 2 2 2 3 4 4 6 3 2 1 3 1 3 1 2 4 1 0 0 3 3 3 2 3 6 6 5 5 5 5 5 4 4 4 4 5 5 7 8 10 12 13 14 15 15 16 16 16 16 16 17 17 17 17 17 17 18 18 19 20 20 20 20 20 21 21 21 21 21 21 22 22 22 23 24 24
4 3 4 2 2 1 1 3 3 2 3 4 2 5 3 2 4 3 1 3 3 3 4 1 4 4 1 2 1 2 2 3 4 5 5 5 5 6 6 6 5 5 5 5 5 6 7 8 9 10 11 12 13 13 14 14 13 13 14 13 14 14 14 14 14 14 15 15 16 17 17 17 18 18 18 18 19 19 19 20 21 22 23 24 25 26
3 2 5 1 4 1 3 3 2 4 2 4 3 3 3 2 1 2 2 2 1 3 4 3 3 3 4 4 3 5 7 7 7 6 6 7 7 7 7 6 6 5 5 5 5 5 7 9 10 10 11 11 11 12 12 11 11 11 11 11 11 11 11 10 10 11 12 12 13 13 14 14 15 15 15 15 15 16 17 18 20 20 22 23 25 27
3 2 4 2 1 0 4 2 3 2 1 2 1 0 1 2 3 2 2 3 2 2 3 5 4 3 5 5 7 10 11 11 10 8 8 9 9 8 7 7 7 6 6 6 5 5 8 10 10 10 10 10 10 9 9 9 8 9 9 8 8 8 8 8 9 9 9 10 10 10 10 10 11 11 11 11 12 14 15 16 18 19 21 23 25 27
2 2 3 3 2 1 1 2 6 6 3 2 2 2 1 0 2 1 1 3 3 2 2 4 5 5 4 3 7 9 10 12 12 11 10 10 10 9 8 7 7 7 7 6 5 6 9 11 11 10 9 8 8 7 7 6 6 6 6 6 7 7 7 8 8 8 7 7 7 7 7 7 7 8 9 10 11 13 14 16 18 20 22 24 25 27
2 3 3 2 1 3 4 3 4 6 5 5 5 5 4 3 3 1 3 1 2 2 4 4 6 7 4 1 4 6 9 11 11 11 10 10 10 10 8 7 7 7 7 6 6 7 10 12 12 11 9 8 7 6 6 5 5 6 6 6 6 7 7 7 6 6 6 5 5 5 6 6 7 8 10 11 12 14 15 17 19 21 23 25 27 28
3 3 3 2 2 4 5 2 3 3 3 4 2 3 3 3 4 4 6 4 1 1 2 2 3 5 2 1 1 5 8 9 9 9 10 9 9 8 7 7 6 6 6 5 6 8 11 13 13 12 10 9 8 7 6 6 6 6 5 5 5 5 5 5 4 4 4 3 4 4 5 6 7 8 10 12 13 14 16 17 19 21 23 25 27 28
2 2 2 1 2 2 4 3 1 2 3 2 2 2 4 3 4 4 5 3 3 3 1 2 4 4 2 3 0 3 4 4 6 7 8 8 7 6 7 7 6 6 5 5 7 9 12 13 12 12 11 10 9 8 7 6 6 6 5 5 4 3 2 2 1 1 2 2 3 4 4 6 6 7 10 11 12 14 15 16 18 19 21 23 25 27
2 2 3 2 2 2 3 2 2 2 1 3 2 2 3 3 5 3 2 3 2 5 6 3 7 5 2 4 2 3 4 4 5 5 5 6 5 6 6 6 5 5 5 6 6 8 9 10 11 13 12 11 10 9 7 7 7 7 6 5 3 2 2 3 3 3 4 3 4 4 4 5 5 6 8 9 11 13 14 15 17 18 20 22 24 26
3 3 3 4 6 6 4 3 3 2 1 1 2 3 4 5 7 4 2 3 4 4 6 5 7 4 3 3 2 1 3 4 6 5 4 5 5 6 6 5 5 5 6 7 7 6 7 9 12 13 12 11 10 9 9 8 8 8 7 6 5 5 5 5 5 5 6 6 5 5 4 4 5 6 7 9 11 14 15 17 19 21 23 25 27 29
1 2 4 8 10 9 7 6 4 4 4 4 4 6 6 6 7 5 4 4 5 2 3 7 5 1 3 3 5 6 4 6 7 6 5 6 6 6 5 4 4 5 6 7 6 6 6 8 11 13 12 12 11 10 10 9 9 8 7 6 5 5 5 5 5 4 4 5 5 5 5 5 6 8 10 12 14 16 18 20 22 24 26 28 30 31
3 3 6 9 10 7 4 5 4 5 6 8 7 8 7 5 7 7 6 6 5 3 8 8 5 4 8 8 8 8 7 7 7 6 6 7 6 5 3 3 5 6 6 6 6 7 7 7 9 11 12 12 12 11 10 9 8 6 5 4 3 2 2 2 2 2 2 3 4 5 6 8 10 11 13 15 17 18 20 23 25 26 28 29 30 30
4 5 5 6 6 3 2 3 4 4 3 4 6 8 8 8 9 10 9 7 8 7 10 6 7 8 11 8 8 9 9 8 8 8 7 5 3 3 3 5 6 6 6 7 7 7 7 6 8 10 11 12 12 11 10 9 7 5 4 3 2 1 1 2 3 3 3 3 5 6 9 10 12 14 15 17 19 21 23 25 26 28 29 30 30 30
3 3 2 4 3 2 1 0 3 4 2 2 6 8 7 8 10 10 8 8 7 6 8 6 6 10 11 7 6 7 7 6 6 6 4 3 4 5 6 7 7 7 8 8 8 7 6 7 9 10 11 12 12 12 11 9 7 7 6 5 3 1 1 2 3 3 4 5 6 8 10 12 14 16 18 20 21 23 25 26 28 29 30 31 31 32
3 2 2 3 2 1 1 0 2 3 3 4 8 10 5 5 7 8 8 5 3 6 10 8 8 11 11 6 5 5 5 4 6 8 6 5 6 7 7 7 7 7 8 8 7 6 5 7 9 11 11 12 12 11 11 10 10 9 8 6 4 2 1 2 3 5 6 8 9 11 13 15 17 19 20 22 23 24 26 27 29 30 31 32 32 33
3 1 2 3 3 3 1 3 4 3 2 4 12 13 7 6 7 7 5 6 7 10 11 7 7 11 9 2 3 4 5 6 8 8 7 6 6 7 7 8 8 8 8 8 7 6 5 7 10 12 12 12 11 12 13 13 13 11 8 6 4 2 2 4 5 7 9 11 12 14 16 17 18 19 20 22 23 25 26 27 28 29 31 32 33 33
4 4 3 3 5 2 1 3 4 4 1 6 11 9 10 11 10 5 3 8 11 9 7 7 9 10 5 1 1 6 7 7 8 7 6 6 6 7 7 8 8 8 8 7 6 7 8 10 13 15 15 15 14 14 14 14 13 10 8 6 4 3 3 5 7 8 10 11 13 15 16 17 18 19 21 22 23 24 25 27 28 28 30 31 31 32
3 5 4 3 4 2 0 1 3 2 5 6 3 4 9 11 11 9 9 11 10 8 7 7 7 6 3 2 7 10 8 6 6 6 6 6 6 7 7 7 7 7 6 6 7 9 12 13 14 15 16 17 16 16 15 13 11 9 7 6 4 4 5 6 8 9 10 12 13 15 16 17 19 20 21 22 23 24 25 26 27 27 28 29 30 31
3 3 2 1 2 2 1 2 3 5 6 3 1 0 4 6 8 9 10 9 8 10 10 9 8 7 7 8 9 7 5 4 4 6 6 6 7 8 7 7 7 6 6 6 7 10 13 14 15 16 18 18 17 16 15 13 11 9 7 6 5 5 6 7 8 10 11 12 13 15 16 18 19 21 22 22 23 24 25 26 26 27 27 28 29 29
5 4 2 2 2 2 1 4 6 4 2 3 4 2 3 3 3 2 5 8 10 11 10 10 11 10 10 9 5 1 1 1 2 4 5 6 6 7 7 7 8 7 8 9 11 14 17 19 20 21 20 19 18 17 15 13 11 9 7 5 5 6 7 8 9 10 11 12 13 15 16 18 20 21 22 22 23 24 25 26 26 27 27 28 28 28
5 4 1 2 3 2 2 5 4 4 6 11 7 3 3 4 5 5 4 8 8 8 9 9 10 12 10 6 2 2 3 3 3 4 5 6 6 7 8 9 9 10 12 14 17 20 22 23 22 22 21 20 18 17 15 13 10 8 6 6 6 7 8 9 10 11 12 13 14 15 16 17 19 20 21 22 23 24 25 25 26 26 26 27 28 28
2 3 3 4 3 2 2 3 3 2 7 10 5 2 2 3 6 6 3 5 6 6 9 10 11 11 8 4 3 4 4 2 3 5 6 7 7 6 7 10 12 13 16 17 18 19 20 21 21 21 21 20 18 16 14 12 10 8 7 7 7 8 9 10 11 12 12 13 14 15 15 16 17 19 20 21 22 24 24 24 25 25 25 26 28 28
3 1 1 2 1 2 3 4 4 5 8 7 5 3 2 2 5 6 4 5 6 6 9 9 9 8 6 6 6 6 5 3 5 6 5 7 8 7 8 9 11 14 15 17 19 20 20 21 21 20 20 20 19 17 15 12 10 8 8 8 8 9 10 11 11 12 12 13 14 14 14 15 17 18 19 21 21 22 23 23 24 24 24 24 26 28
3 2 1 2 3 4 5 4 4 5 6 5 5 3 2 2 7 8 2 7 6 5 7 9 9 8 7 7 6 6 6 6 6 6 6 7 8 9 10 11 12 15 16 16 18 19 21 22 23 22 22 22 20 18 15 12 10 9 8 8 9 10 10 11 11 11 12 13 13 13 14 15 16 17 18 20 21 21 21 22 23 23 24 25 25 27
1 0 1 4 6 7 7 5 3 4 5 5 5 6 5 3 6 4 5 7 4 6 6 8 9 8 7 7 6 6 7 7 7 6 5 5 5 8 12 15 15 16 17 18 19 20 22 24 25 24 24 22 20 17 15 13 10 9 8 8 9 10 10 10 11 12 12 12 12 13 14 14 16 17 17 18 19 20 21 21 22 23 23 25 26 26
2 1 1 3 4 4 4 4 3 6 5 6 5 3 5 4 2 5 6 3 5 8 7 7 8 7 7 8 8 7 7 8 7 5 4 5 7 9 12 13 12 12 14 16 18 21 24 24 23 23 22 21 20 17 15 12 10 8 8 9 9 9 10 10 11 12 12 12 12 13 14 15 15 16 17 17 18 20 21 21 21 22 23 24 25 26
5 4 2 4 3 2 2 3 4 6 4 10 10 2 1 4 5 5 2 1 4 7 7 7 7 6 7 8 8 8 9 9 7 6 5 6 7 8 10 12 14 16 17 18 20 24 26 25 24 24 23 21 19 17 14 11 9 8 9 9 9 9 10 11 12 12 12 12 12 13 14 15 15 15 16 17 17 19 21 22 21 22 22 23 24 25
4 5 3 4 3 4 4 6 5 3 4 10 11 5 6 8 6 5 5 4 4 5 5 6 6 6 7 8 8 9 9 9 8 8 7 6 7 8 9 12 15 18 20 22 24 27 28 26 24 23 21 20 18 15 12 10 9 9 9 9 9 10 11 11 12 12 12 12 13 14 15 15 15 15 16 16 17 19 21 22 22 22 22 23 23 24
6 5 5 4 3 5 6 6 4 3 4 8 7 6 9 10 6 5 6 4 4 5 5 5 6 7 8 8 9 8 8 9 10 9 8 7 8 9 10 14 18 20 22 23 24 26 28 27 24 22 21 18 16 14 11 10 9 9 9 10 10 11 11 12 12 12 12 12 13 14 15 16 15 16 16 17 17 19 21 22 23 23 23 23 22 23
4 3 4 2 2 4 4 3 2 2 4 8 8 6 7 8 6 6 6 5 4 5 6 6 6 7 8 8 8 7 8 9 9 9 9 8 7 9 11 14 17 19 20 21 22 25 25 23 21 21 20 18 16 13 11 10 10 9 10 10 11 11 12 12 13 12 12 12 13 14 15 17 17 17 17 17 18 19 21 22 22 22 23 23 23 22
3 3 4 2 2 3 3 3 5 4 5 8 9 8 6 7 6 5 6 7 6 6 7 7 7 7 6 7 8 9 10 10 9 9 8 7 7 9 10 13 16 19 21 22 23 24 24 22 21 21 20 18 16 13 11 11 10 10 11 11 11 12 12 12 13 12 12 12 13 14 15 17 18 19 19 19 19 20 21 21 21 21 23 23 23 22
2 4 4 4 5 4 3 5 4 1 2 5 7 7 8 9 7 5 6 7 6 5 6 6 6 6 5 6 9 10 10 9 9 9 8 7 7 8 10 14 17 18 19 20 22 23 24 23 22 21 20 18 15 13 12 12 11 11 11 11 11 12 12 12 12 12 12 12 13 14 15 16 18 20 20 21 20 20 21 22 22 21 22 23 22 22
2 3 4 5 5 2 2 4 2 3 4 6 7 9 9 8 7 7 7 7 6 6 7 6 6 7 7 8 8 8 8 10 9 8 9 8 7 8 11 14 16 16 18 20 22 24 24 23 22 21 19 17 15 14 13 12 11 12 12 11 11 12 12 12 12 12 12 12 13 14 15 16 18 19 20 21 22 21 21 21 21 21 22 22 21 20
3 4 3 4 4 3 3 6 6 3 4 7 9 12 12 8 7 7 8 7 7 8 8 7 7 8 9 10 9 7 8 10 10 8 8 8 9 12 14 13 13 15 18 20 22 23 23 22 21 20 18 16 15 14 13 11 11 11 11 11 11 12 12 12 12 12 12 12 13 14 15 17 18 18 19 21 22 23 23 22 20 18 19 20 19 17
7 8 7 5 5 6 8 10 8 5 6 7 8 10 9 7 7 8 9 9 10 10 8 7 8 9 8 10 12 12 10 10 12 11 8 9 13 15 14 14 16 18 20 23 24 24 23 21 20 19 17 16 14 13 12 11 11 11 11 11 11 12 12 11 12 12 12 12 13 14 16 17 18 18 19 19 20 22 24 25 24 21 18 16 15 17
Wind_Direction
112 133 192 216 215 208 207 205 209 207 140 147 164 188 209 233 266 265 262 273 124 289 277 264 271 277 278 289 331 346 4 28 24 61 75 64 64 56 54 50 39 42 31 21 27 31 33 36 41 44 47 52 55 56 57 58 58 58 59 59 58 57 59 62 63 65 66 66 65 64 64 63 61 58 58 57 55 54 51 48 47 43 39 32 26 15
99 168 224 228 219 212 206 206 218 242 104 136 206 255 264 237 258 265 257 287 35 146 266 337 336 284 276 307 352 5 34 27 14 60 70 63 68 54 51 46 36 38 24 25 28 29 33 37 41 44 46 49 50 50 53 56 58 60 60 60 59 58 60 62 64 67 67 68 70 72 72 70 67 63 60 58 56 55 52 49 46 43 39 36 36 34
112 210 239 236 212 165 138 153 178 214 200 189 182 225 268 247 275 284 281 319 38 126 270 337 342 282 286 26 33 31 57 43 27 57 59 61 67 51 46 38 31 35 24 25 23 23 31 36 41 45 45 47 48 49 51 55 58 60 60 60 60 61 61 62 66 70 71 73 74 76 77 76 74 69 66 64 60 57 53 48 44 41 37 33 33 31
188 239 245 227 150 161 215 124 124 141 174 178 165 160 251 251 263 280 295 338 15 101 270 245 260 279 296 73 65 50 77 77 56 61 58 55 62 54 50 41 34 35 26 23 18 19 29 36 40 43 43 46 49 49 49 52 55 57 59 61 62 62 62 63 65 70 75 78 78 78 78 77 77 72 69 65 58 53 51 47 43 40 38 35 33 30
226 242 237 120 132 176 207 153 130 142 229 239 204 186 228 237 210 229 281 343 352 13 359 11 324 295 305 18 95 87 83 74 56 57 54 41 46 52 50 45 36 35 27 21 18 16 28 36 40 43 45 48 50 50 49 51 55 58 60 62 63 64 64 63 64 66 72 76 76 76 74 71 68 62 56 52 47 46 46 45 42 40 38 36 34 31
250 241 110 92 120 160 188 204 171 165 200 287 233 205 218 223 213 230 315 9 18 351 334 24 4 292 316 324 191 135 65 53 42 42 49 34 31 39 40 38 27 28 27 20 27 27 31 38 42 45 47 50 52 52 54 57 60 62 64 65 66 66 65 65 65 65 66 69 68 68 66 62 58 53 48 45 44 45 46 45 43 41 38 35 34 31
262 266 132 153 143 142 188 240 223 170 140 298 246 203 210 199 179 188 157 88 121 259 293 42 83 263 316 323 243 143 81 57 45 40 44 33 34 41 36 32 20 18 18 18 32 35 37 40 42 44 46 50 54 56 61 63 63 65 65 67 68 67 67 67 68 67 67 68 68 68 68 65 62 58 53 50 49 47 46 45 44 41 39 35 32 30
231 312 90 154 132 148 197 244 226 162 123 250 238 145 152 157 161 168 142 140 211 252 316 15 109 260 291 287 265 129 104 60 47 45 42 42 46 49 36 26 19 10 7 19 32 35 38 41 43 45 49 53 58 61 65 65 64 65 65 67 68 67 67 67 67 68 68 70 70 71 71 69 67 65 62 59 56 53 50 48 46 43 40 36 31 27
197 208 208 169 149 189 210 232 198 157 148 242 198 111 119 136 146 136 111 109 1 24 312 307 108 278 265 268 325 96 125 75 132 182 143 107 87 67 55 23 8 359 3 24 39 41 41 44 49 53 56 60 63 65 66 67 67 67 67 67 68 66 65 65 65 66 67 68 69 69 70 69 67 66 65 63 60 58 55 54 52 49 47 44 40 34
117 231 209 157 161 209 212 280 194 167 191 216 127 94 68 72 82 76 95 112 49 55 249 244 184 194 269 276 323 90 180 242 196 188 189 160 137 94 81 20 355 2 11 24 42 50 51 53 57 62 64 65 66 68 70 71 70 69 69 68 68 66 65 64 64 64 65 65 65 65 65 65 64 62 61 59 57 54 53 53 51 50 48 47 45 42
323 304 189 146 180 196 146 64 91 146 140 124 101 72 37 34 56 53 65 95 65 268 246 234 198 184 267 284 246 160 170 245 194 167 179 179 164 160 192 247 318 6 11 14 35 50 58 63 64 67 68 67 69 72 73 72 71 71 70 70 69 67 66 65 63 64 64 63 63 63 63 62 61 58 57 55 53 50 49 49 47 47 46 44 43 41
338 343 270 251 189 133 96 66 34 26 65 97 89 74 42 341 19 27 357 50 119 252 261 265 205 170 218 261 232 224 307 280 225 190 179 177 181 190 204 215 238 1 13 18 28 46 56 60 62 65 67 68 72 74 74 73 73 73 72 72 72 69 67 66 65 64 64 63 63 63 62 62 60 58 57 56 54 51 48 47 44 43 42 40 39 37
317 246 266 309 238 137 102 68 21 1 30 82 95 89 79 319 349 354 313 329 229 249 264 275 164 164 234 241 210 276 307 299 273 224 179 170 178 188 198 200 186 21 27 39 35 41 53 59 62 67 70 71 74 75 77 77 76 75 74 73 73 72 70 69 67 66 65 64 64 63 63 63 61 60 59 57 56 53 50 47 44 42 39 37 36 34
299 291 313 91 280 179 144 146 180 264 143 140 146 129 127 150 201 276 271 270 267 265 268 263 160 206 268 259 203 265 292 294 290 229 166 163 173 180 188 186 165 112 62 58 56 60 75 81 78 78 79 78 79 80 80 80 78 77 76 75 76 76 73 71 70 68 67 67 66 65 65 64 62 61 60 58 56 53 50 47 45 43 40 38 36 33
181 296 221 174 234 190 174 183 164 146 149 177 160 135 148 156 170 227 226 211 252 283 298 285 221 194 220 216 219 245 305 322 333 90 131 147 169 173 170 173 170 161 151 135 141 141 114 101 94 90 88 86 86 86 84 82 80 79 78 77 77 77 74 71 71 70 70 71 70 67 66 65 63 62 60 58 55 52 49 46 44 43 40 38 36 33
156 249 251 220 224 164 180 199 129 114 125 217 130 111 164 181 160 192 204 176 188 305 296 246 226 217 185 162 201 124 42 25 41 95 126 150 170 166 172 186 187 182 184 187 181 176 143 116 106 101 98 95 92 90 88 85 82 81 80 79 77 76 74 70 68 68 69 69 68 66 65 63 61 60 58 55 52 49 46 43 41 39 36 34 30 27
142 260 275 322 2 161 173 193 137 135 187 169 131 177 215 175 127 122 264 46 78 273 272 201 235 285 328 195 315 71 62 54 92 141 155 173 182 181 195 197 193 195 195 195 193 185 159 130 117 111 106 102 99 94 91 88 85 83 81 79 78 76 73 70 68 69 67 65 64 62 61 58 56 53 51 48 46 43 40 38 36 33 29 26 22 19
145 252 268 140 160 217 163 142 74 35 142 128 182 214 191 120 96 100 248 347 36 248 274 210 210 249 243 237 318 64 146 179 198 192 184 197 200 198 206 203 199 200 199 203 202 190 166 142 127 120 113 107 105 99 94 90 86 85 82 79 79 77 75 73 70 69 66 63 63 60 57 54 50 48 45 42 38 34 31 29 27 24 21 18 13 10
127 222 276 149 162 279 16 93 71 354 66 129 196 203 114 144 168 94 162 229 244 242 282 286 237 229 211 202 197 201 195 190 198 198 196 207 207 207 211 207 208 205 202 207 201 195 179 156 139 130 123 116 112 106 100 96 90 86 82 77 76 75 75 75 71 68 65 63 63 59 54 50 47 45 41 37 33 28 24 22 18 14 11 8 4 360
102 168 269 310 178 324 27 87 171 258 4 74 133 29 45 165 169 148 154 164 185 223 273 293 298 266 231 197 184 198 190 176 183 189 197 206 204 206 206 198 201 201 201 203 195 194 181 162 149 140 133 126 120 114 107 103 99 94 88 84 85 83 84 81 73 69 66 64 61 56 52 46 43 41 35 30 26 20 18 14 9 6 3 0 357 353
92 170 232 296 336 118 166 201 185 185 174 144 168 202 252 153 134 197 200 127 139 177 223 269 280 268 252 195 184 194 180 172 180 182 190 202 203 206 207 198 198 200 202 201 191 188 180 167 158 149 141 134 127 122 118 117 117 114 112 112 108 99 94 86 77 73 69 65 60 54 49 40 32 29 23 19 18 14 12 8 3 360 356 354 352 350
166 163 177 211 208 182 224 238 186 187 178 162 186 202 190 164 131 187 246 219 132 170 182 206 260 267 261 208 180 177 171 176 183 179 183 201 205 206 211 205 201 202 203 199 187 182 181 176 170 162 158 153 144 140 139 142 145 142 136 127 113 100 91 83 75 69 63 58 48 37 31 18 9 7 5 5 5 4 2 359 355 352 348 347 346 345
146 122 146 194 202 212 253 277 166 190 156 134 191 203 159 152 141 172 228 228 150 214 158 137 259 271 273 281 197 177 178 177 180 179 183 200 205 205 212 211 205 207 204 192 181 181 184 183 178 173 172 171 169 170 168 165 163 155 144 128 115 105 93 81 72 62 53 44 27 14 7 0 352 348 350 351 349 348 348 347 346 343 340 338 337 336
113 112 159 245 323 324 312 327 40 68 98 130 247 176 148 169 157 175 207 170 151 226 158 118 254 257 306 324 319 156 162 166 184 188 188 201 207 206 213 212 203 199 191 177 179 186 188 185 180 181 183 183 185 186 183 180 176 168 159 149 137 124 108 83 53 19 4 1 355 343 337 341 335 330 336 336 332 334 337 337 338 337 334 333 332 331
204 163 148 188 293 326 329 324 325 333 173 190 226 196 167 142 110 105 130 116 202 213 163 184 249 248 300 333 9 110 134 168 211 203 189 204 212 213 221 220 208 192 179 180 186 189 189 185 186 191 192 191 193 193 190 188 188 185 182 188 203 225 255 272 277 286 294 300 312 318 318 317 310 306 312 313 317 326 332 335 335 334 334 333 332 331
217 183 154 178 217 234 228 212 221 231 198 194 203 199 196 163 147 144 134 168 229 198 156 208 247 263 319 333 319 248 164 191 231 226 215 230 226 220 224 218 206 194 187 190 191 188 189 192 196 199 198 197 198 198 197 199 200 203 211 226 244 261 270 276 277 273 272 276 285 294 291 287 286 292 301 311 321 329 332 332 331 330 330 329 329 329
135 196 205 205 224 233 220 215 208 152 151 193 205 198 199 181 165 152 142 192 218 175 201 230 217 214 277 239 226 238 209 206 228 226 228 244 240 236 239 226 209 205 200 194 188 188 195 203 206 205 202 202 203 203 205 209 214 218 228 239 253 268 271 272 274 266 255 256 263 273 283 297 307 313 318 322 325 326 324 323 323 324 324 324 325 325
122 221 222 213 233 240 197 196 193 163 177 191 192 202 205 173 155 167 189 203 175 172 244 238 157 178 246 226 203 218 219 216 226 228 227 236 241 243 249 234 214 206 202 194 191 196 200 208 212 209 209 209 210 212 213 214 218 223 228 233 241 260 268 280 303 312 283 259 266 285 301 312 315 316 318 319 319 319 318 319 320 321 322 323 323 324
150 225 214 192 224 231 138 168 172 166 190 183 187 204 197 175 176 188 205 202 173 197 246 233 158 200 241 229 193 207 217 213 216 221 218 220 234 223 205 209 208 199 195 197 202 205 204 208 212 211 214 216 215 216 212 207 205 203 201 197 191 191 10 4 355 351 334 301 292 297 302 306 308 310 312 313 315 316 317 318 319 320 321 322 323 324
172 218 180 166 198 172 135 245 145 151 192 223 232 228 200 184 191 195 210 212 197 223 254 246 211 229 243 228 198 208 218 217 226 234 214 187 205 208 200 201 200 193 193 199 206 209 208 210 213 214 218 220 219 214 206 197 190 187 185 177 164 146 22 345 338 335 322 310 305 304 304 305 306 308 310 311 313 315 316 318 318 318 319 320 321 322
217 208 119 133 185 202 240 8 97 139 187 222 254 251 219 178 200 213 221 215 202 244 252 252 255 258 257 236 202 205 205 213 246 256 245 217 204 198 195 197 195 194 199 206 210 211 213 212 212 214 214 213 211 204 195 189 183 181 177 171 171 184 244 296 308 313 310 307 306 305 305 305 306 308 310 311 313 315 315 316 317 317 318 319 320 321
198 206 67 100 202 234 209 143 128 106 115 250 259 249 210 184 212 218 205 196 204 225 240 249 254 257 261 223 161 206 208 210 233 243 242 235 206 188 192 196 196 199 202 207 208 203 201 199 198 198 192 184 180 178 180 181 178 176 177 177 187 217 263 289 300 302 301 301 301 302 303 305 307 308 311 313 314 316 317 317 318 318 319 320 320 321
163 168 134 161 206 220 100 143 130 85 56 261 255 227 191 205 225 222 206 220 214 205 212 227 236 247 263 69 200 246 236 228 235 233 226 226 206 194 201 199 199 206 204 201 199 192 192 193 191 186 177 170 170 171 174 177 178 177 180 187 202 234 268 290 298 298 297 298 298 301 303 305 309 311 314 316 317 317 319 319 320 321 321 321 321 321
167 167 167 184 186 173 171 107 102 133 234 246 255 165 180 201 212 213 228 231 213 194 206 230 247 264 275 237 242 250 248 240 237 229 218 209 193 198 211 210 207 210 208 200 195 192 194 194 190 184 176 172 173 173 174 177 180 181 184 193 216 248 274 290 296 296 297 298 299 302 304 307 311 314 315 317 318 318 320 320 321 322 322 322 323 324
153 145 140 125 122 136 124 106 164 218 229 241 349 165 188 185 184 207 241 247 220 211 222 236 253 256 240 235 239 249 261 254 237 233 223 203 189 188 195 210 215 212 210 209 203 200 198 193 186 181 177 176 176 176 177 180 184 189 195 208 234 263 282 289 292 293 293 294 297 300 305 309 312 314 316 317 318 319 320 321 321 323 324 325 325 326
147 143 127 120 129 124 124 186 214 244 307 283 257 173 122 119 136 177 276 265 232 214 211 222 238 241 237 241 246 233 248 264 272 256 232 209 197 182 180 200 211 209 209 203 199 201 201 195 189 186 183 181 181 182 183 186 191 197 207 227 253 272 282 285 286 287 287 292 297 301 307 311 312 314 316 317 318 319 320 321 323 325 326 325 325 325
151 146 126 171 181 157 171 221 254 348 316 277 258 181 151 166 159 163 234 259 241 204 187 199 226 238 238 234 206 123 99 55 344 291 257 235 218 194 193 208 211 211 217 213 208 208 205 199 194 192 189 186 186 188 190 193 197 203 217 241 260 271 277 279 280 283 288 293 298 303 308 310 311 313 315 316 318 319 320 321 322 324 326 325 324 324
149 162 187 210 210 125 141 243 285 305 266 263 247 195 224 181 155 153 187 275 268 205 183 189 211 230 232 197 164 137 105 92 274 268 255 243 230 204 212 227 224 220 221 216 210 207 203 199 196 194 191 188 188 192 194 197 203 210 225 244 260 266 270 274 277 282 287 292 298 304 309 310 311 313 315 316 318 317 318 320 321 323 325 325 323 322
39 24 158 181 206 120 155 223 234 231 255 258 228 231 277 160 137 104 61 296 264 209 185 186 200 215 209 186 170 142 130 184 248 259 246 233 225 210 212 227 229 226 221 210 203 200 199 196 193 190 191 191 192 195 198 202 209 219 231 245 256 261 264 269 274 280 286 293 302 308 310 311 312 313 314 314 315 315 315 317 320 322 323 323 322 320
52 19 112 180 210 206 201 227 237 240 259 246 207 210 233 147 105 86 42 274 251 204 181 175 187 203 193 177 161 151 169 201 227 241 232 215 213 211 207 209 212 213 210 204 201 200 197 192 189 188 192 195 197 198 202 207 214 224 237 246 252 257 262 267 274 281 288 297 305 308 308 310 311 312 313 312 312 313 314 317 319 321 322 322 321 320
42 330 215 219 227 221 217 233 265 267 249 215 184 176 171 111 75 108 224 240 201 191 191 176 189 200 179 163 166 183 207 214 213 227 224 190 195 214 216 215 213 210 208 205 201 197 192 190 192 195 197 199 200 202 205 211 218 229 238 245 251 257 263 269 276 283 291 299 304 305 306 309 309 310 310 310 311 312 313 317 319 319 320 321 320 319
169 170 244 225 221 221 219 223 270 278 238 172 154 171 158 132 139 211 225 207 161 180 196 196 204 197 169 175 191 203 222 228 222 224 211 188 198 211 213 211 208 208 208 203 200 196 191 189 192 196 197 198 201 205 208 213 221 230 237 246 255 260 265 271 278 286 293 299 302 304 306 308 307 309 309 310 312 312 313 317 319 318 320 320 318 317
164 156 209 218 187 151 180 199 232 267 220 139 125 103 199 192 206 203 187 172 176 178 183 203 217 200 176 191 209 218 230 239 236 230 222 214 217 219 213 204 200 202 201 197 198 198 193 190 192 195 196 198 201 206 211 216 224 232 241 252 259 262 268 274 280 288 295 299 302 304 306 307 308 310 311 313 315 314 314 317 318 319 320 319 317 315
181 163 188 221 187 146 177 207 207 217 173 148 142 160 210 209 193 155 152 183 200 186 178 196 219 211 189 196 216 224 232 242 244 237 229 224 225 228 225 214 208 209 207 204 204 200 195 193 194 193 194 197 201 207 214 220 229 239 248 257 261 264 271 276 282 288 294 298 302 304 306 308 311 313 315 317 318 315 315 317 318 318 319 317 315 312
223 188 171 194 198 175 193 215 204 126 153 178 178 186 205 213 204 165 167 185 197 190 177 182 211 213 200 204 219 226 231 237 239 237 230 225 224 224 224 221 217 214 211 209 206 200 197 197 195 190 191 197 203 211 220 228 237 246 255 261 263 266 272 277 281 287 294 298 302 305 308 310 313 317 318 320 320 317 316 317 316 315 315 314 312 309
238 177 147 151 229 241 233 204 165 134 176 199 214 217 210 219 218 190 193 217 210 185 175 180 203 211 203 203 214 228 236 237 238 240 235 231 232 230 226 226 225 219 213 209 204 199 196 194 192 189 191 197 205 214 226 236 244 252 258 261 263 268 272 276 282 287 293 299 302 306 311 313 316 319 321 321 321 318 316 315 313 312 312 311 309 307
271 164 161 184 207 230 249 200 175 185 189 194 214 233 238 242 231 189 194 220 210 188 189 197 209 219 209 195 202 223 236 235 235 242 241 233 236 236 228 227 226 220 213 208 203 196 191 188 188 190 194 200 209 218 229 240 250 256 259 260 262 267 270 274 281 287 292 298 303 307 312 316 318 320 321 321 321 319 317 316 312 308 309 309 306 304
249 160 173 214 205 189 233 233 201 192 252 220 215 226 236 238 225 190 199 223 219 214 219 209 202 213 215 205 206 219 236 239 232 235 240 239 239 239 232 230 227 218 210 206 200 192 187 187 189 192 197 204 212 220 228 237 249 255 258 260 262 265 269 272 277 284 290 297 303 308 314 317 318 319 319 319 320 319 318 317 314 309 309 310 306 300
142 165 174 196 203 195 267 239 169 45 312 261 232 230 235 229 212 202 213 222 224 237 246 236 218 213 218 224 215 206 226 243 238 226 234 244 245 239 235 233 226 213 204 200 195 190 189 191 193 196 202 208 214 221 228 236 245 250 254 258 260 262 266 270 274 281 288 296 303 310 316 317 317 318 318 317 319 320 318 318 316 310 308 311 311 299
160 212 180 164 197 216 224 209 181 165 248 240 224 227 230 219 205 214 222 222 224 230 236 244 249 240 231 233 222 197 212 241 241 227 230 241 244 244 241 229 210 198 195 193 189 189 192 195 198 201 206 210 215 221 229 236 243 249 254 256 256 259 263 268 274 281 287 297 306 312 315 315 315 317 317 317 319 320 320 321 320 310 302 307 310 300
199 212 192 177 211 225 222 215 196 185 227 240 228 222 218 202 198 217 232 235 235 233 223 224 242 249 243 235 223 208 211 237 240 231 229 239 243 246 240 218 200 193 190 188 185 186 191 195 200 204 206 209 215 222 230 237 243 248 251 252 253 256 261 267 274 282 290 300 308 312 313 312 312 315 316 316 318 320 320 322 324 322 317 310 306 301